www.pogodaiklimat.ru

Погода и климат >> Архив погоды >> Россия >> Чукотка >> Эгвекинот


ПОГОДА в Эгвекиноте

  • Прогноз погоды в Эгвекиноте
  • Монитор погоды в Эгвекиноте
  • Климат города

АРХИВ ПОГОДЫ в Эгвекиноте

Время (UTC), дата Ветер
(напр.,м/с)
 
Видим.   Явления Облачность Т
(С)
Тd
(С)
f
(%)
Тe
(С)
Тes
(С)
Комфортность P
(гПа)
Po
(гПа)
Тmin
(С)
Tmax
(С)
R
(мм)
R24
(мм)
S
(см)
18 22.04 ЮЗ 2
{5}
20 км ясно -7.6 -12.9 66 -12 -11 1024.4 1021.4 -10.0 82
21 22.04 Ю 3
{5}
20 км ясно -3.2 -9.3 63 -8 -3 1024.2 1021.3 -10.0
00 23.04 С 5
{8}
20 км ясно -0.2 -8.5 54 -6 -1 1023.3 1020.4
03 23.04 С 5
{9}
20 км ясно -0.1 -8.3 54 -6 -3 1022.5 1019.6
06 23.04 С 5
{10}
20 км ясно -0.8 -11.5 44 -6 -6 1022.2 1019.3 +0.8
09 23.04 С 6
{11}
20 км 8/0
[Ci fib]
-2.9 -10.9 54 -10 -10 1022.5 1019.6
12 23.04 С 6
{9}
20 км 8/0
[Ci fib]
-4.4 -10.8 61 -12 -12 1022.0 1019.1
15 23.04 С 6
{11}
20 км 8/0
[Ci fib]
-4.2 -12.4 53 -11 -11 1021.0 1018.1
18 23.04 С 7-11
{14}
20 км 8/0
[Ci fib]
-2.4 -14.2 40 -9 -9 1020.1 1017.2 -7.1 86
21 23.04 С 10-15
{17}
20 км 5/0
[Ci fib]
-2.2 -12.2 46 -10 -10 1019.5 1016.6 -7.1
00 24.04 С 10-16
{18}
20 км ясно -1.6 -11.7 46 -10 -9 1017.7 1014.9
03 24.04 С 11-17
{17}
20 км ясно -1.9 -11.5 48 -10 -10 1016.5 1013.7
06 24.04 С 11-17
{19}
20 км ясно -3.8 -10.6 59 -13 -13 1016.1 1013.2 -1.2
09 24.04 С 14-21
{21}
20 км позёмок {метель} 8/0
[Ci fib]
-4.8 -11.0 62 -15 -15 1015.7 1012.8
12 24.04 СЗ 14-21
{22}
20 км позёмок {метель} 6/0
[Ci fib]
-4.7 -13.3 51 -15 -15 1014.4 1011.5
15 24.04 СЗ 9-15
{21}
20 км {метель} 10/0
[Cc]
-4.9 -15.9 42 -13 -13 1013.9 1011.0
18 24.04 СЗ 8-14
{19}
20 км {метель} 10/0
[Cc]
-5.3 -16.0 43 -13 -13 1013.7 1010.8 -5.7 82
21 24.04 С 9-16
{18}
20 км 10/0
[Ci fib]
-5.2 -14.2 49 -14 -13 1013.2 1010.3 -5.7
00 25.04 С 16-21
{23}
20 км 10/0
[Cs]
-4.9 -12.4 56 -16 -16 1012.0 1009.1
03 25.04 С 9-16
{23}
20 км 10/0
[Cs]
-4.0 -12.4 52 -12 -12 1012.0 1009.1
06 25.04 С 10-17
{23}
20 км 10/0
[Ci fib]
-4.2 -12.8 51 -13 -13 1011.4 1008.5 -3.7
09 25.04 С 14-19
{23}
20 км 10/0
[Ac lent Ci fib]
-5.3 -13.6 52 -16 -16 1010.9 1008.0
12 25.04 С 16-21
{23}
20 км 10/0
[Ac lent Ci fib]
-6.1 -13.5 56 -17 -17 1010.7 1007.8
15 25.04 С 13-19
{23}
20 км 10/0
[Ci fib]
-5.5 -14.3 50 -16 -16 1010.3 1007.4
18 25.04 С 14-20
{22}
20 км 10/0
[Cs]
-5.7 -14.2 51 -16 -16 1010.4 1007.5 -6.2 82
21 25.04 С 14-16
{20}
20 км 10/0
[Ci sp]
-5.9 -13.5 55 -17 -17 1010.4 1007.5 -6.2
00 26.04 С 11-18
{21}
20 км 8/0
[Ci sp]
-4.3 -12.9 51 -14 -13 1010.5 1007.6
03 26.04 СЗ 11-17
{19}
20 км 10/0
[Ci sp]
-4.7 -13.1 52 -14 -14 1010.6 1007.7
06 26.04 С 7-12
{16}
20 км 10/0
[Ci fib]
-4.6 -13.0 52 -12 -12 1010.6 1007.7 -3.5
09 26.04 С 8-12
{15}
20 км 10/0
[Ci fib]
-5.2 -13.7 51 -13 -13 1011.5 1008.6
12 26.04 С 9
{17}
20 км 10/0
[Ci fib]
-5.9 -14.3 51 -15 -15 1011.3 1008.4
15 26.04 С 10-11
{17}
20 км 10/0
[Ci fib]
-5.2 -15.1 46 -14 -14 1010.7 1007.8
18 26.04 С 10-10
{17}
20 км 6/0
[Ac lent Ci fib]
-4.8 -15.7 42 -14 -14 1010.8 1007.9 -6.1 82
21 26.04 С 9-15
{17}
20 км ясно -4.0 -14.0 46 -12 -12 1010.9 1008.0 -6.1
00 27.04 С 11-15
{17}
20 км ясно -4.1 -13.8 47 -13 -13 1010.9 1008.0
03 27.04 СЗ 7-11
{15}
20 км ясно -3.5 -13.5 46 -11 -9 1010.9 1008.0
06 27.04 С 6-11
{13}
20 км ясно -4.8 -14.1 48 -12 -11 1011.5 1008.6 -3.5
09 27.04 С 9-11
{13}
20 км ясно -7.7 -15.0 56 -17 -17 1011.7 1008.8
12 27.04 С 6-10
{12}
20 км ясно -9.4 -15.9 59 -18 -18 1011.8 1008.9
15 27.04 Ю 5
{11}
20 км ясно -12.2 -16.9 68 -20 -20 1012.0 1009.1
18 27.04 штиль 0
{8}
20 км ясно -12.3 -17.2 67 -12 -11 1013.0 1010.1 -14.5 81
21 27.04 Ю 3
{5}
20 км ясно -10.4 -15.3 67 -16 -11 1013.6 1010.7 -14.5
00 28.04 С 2
{10}
20 км ясно -7.4 -14.1 59 -12 -3 1013.6 1010.7
03 28.04 Ю 1
{5}
20 км 3/0
[Ci fib]
-6.4 -13.1 59 -8 -2 1013.9 1011.0
06 28.04 Ю 2
{5}
20 км 4/0
[Ci fib]
-8.6 -13.9 65 -13 -12 1013.9 1011.0 -5.5
09 28.04 штиль 0
{4}
20 км 3/0
[Ci fib]
-12.5 -14.8 83 -13 -13 1013.8 1010.8
12 28.04 штиль 0
{2}
20 км ясно -15.8 -17.8 85 -16 -16 1013.6 1010.6
15 28.04 штиль 0
{2}
20 км ясно -16.3 -18.1 86 -16 -16 1013.5 1010.5
18 28.04 штиль 0
{2}
20 км ясно -16.1 -19.1 78 -16 -14 1013.5 1010.5 -17.4 79
21 28.04 СВ 1
{2}
20 км 4/3 600 м
[Sc Ac und Ci fib]
-11.0 -14.1 78 -13 -9 1013.4 1010.4 -17.4
00 29.04 С 2
{3}
20 км 8/3 600 м
[Sc Ci fib]
-7.3 -11.8 70 -12 -6 1013.2 1010.3
03 29.04 Ю 2
{4}
20 км 8/1 600 м
[Sc Ci fib]
-5.7 -9.6 74 -10 -5 1012.6 1009.7
06 29.04 С 1
{5}
20 км 8/8 600 м
[Sc]
-7.0 -9.9 80 -9 -9 1012.7 1009.8 -4.4
09 29.04 С 2
{4}
20 км 10/10 600 м
[Sc]
-7.9 -10.0 85 -12 -12 1013.1 1010.2
12 29.04 штиль 0
{3}
20 км 10/10 600 м
[Sc]
-8.4 -9.9 89 -9 -9 1013.3 1010.4
15 29.04 С 3
{4}
20 км 10/10 600 м
[Sc]
-7.0 -9.9 80 -13 -13 1013.1 1010.2

 

Местоположение метеостанции Эгвекинот (Чукотка, Россия): широта 66.35 долгота -179.00 высота над уровнем моря 22 м.

В архиве по умолчанию представлена погода в Эгвекиноте за последнюю неделю. Архивные данные за месяц целиком и за предыдущие месяцы, начиная с января 2011 года, Вы можете получить, выбрав интересующий диапазон дат из раскрывающегося списка и нажав кнопку "Ввод!".

Внимание! Время в таблицах - всемирное. Для получения местного времени необходимо прибавить поправку, которая в Эгвекиноте равна 12 ч.

Смотрите также архив погоды в соседних городах и на ближайших метеорологических станциях:

Погода на Мысе Ванкарем (Чукотка, Россия) (239 км)
Погода в Уэлене (Чукотка, Россия) (448 км)
Погода на Острове Врангеля (Чукотка, Россия) (517 км)

Пояснения к столбцам:

Ветер - указаны скорость ветра в м/с - средняя за 10 мин, порывы в срок и между сроками (в фигурных скобках) и направление, откуда дует ветер: С - северный, СВ - северо-восточный, В - восточный, ЮВ - юго-восточный, Ю - южный, ЮЗ - юго-западный, З - западный, СЗ - северо-западный.
Видимость - горизонтальная дальность видимости в метрах или километрах. При видимости от 1 до 10 км при отсутствии осадков обычно наблюдается дымка, при ухудшении видимости до 1 км и менее - туман. В сухую погоду видимость может ухудшаться дымом, пылью или мглою.
Явления - указаны атмосферные явления, наблюдавшиеся в срок или в последний час перед сроком; фигурными скобками обозначены явления, наблюдавшиеся между сроками (за 1-3 часа до срока); квадратными скобками обозначены град или гололедные отложения с указанием их диаметра в мм.
Облачность - указаны через наклонную черту общая и нижняя облачность в баллах и высота нижней границы облаков в метрах; квадратными скобками обозначены формы облаков: Ci - перистые, Cs - перисто-слоистые, Cc - перисто-кучевые, Ac - высококучевые, As - высокослоистые, Sc - слоисто-кучевые, Ns - слоисто-дождевые, Cu - кучевые, Cb - кучево-дождевые. Подробнее классификацию облаков см. в Атласе облаков (PDF).
T - Температура воздуха - температура, измеренная на высоте 2 м над землей.
Td - Температура точки росы - температура, при понижении до которой содержащийся в воздухе водяной пар достигнет насыщения.
f - Относительная влажность воздуха - влажноcть воздуха, измеренная на высоте 2 м над землей.
Te - Эффективная температура - температура, которую ощущает одетый по сезону человек в тени. Характеристика душности погоды. При расчете учитывается влияние влажности воздуха и скорости ветра на теплоощущения человека.
Tes - Эффективная температура на солнце - температура, которую ощущает человек, с поправкой на солнечный нагрев. Характеристика знойности погоды. Зависит от высоты солнца над горизонтом, облачности и скорости ветра. Ночью, в пасмурную погоду, а также при ветре 12 м/с и более поправка равна нулю.
P - Атмосферное давление - приведенное к уровню моря атмосферное давление.
Po - Атмосферное давление - измеренное на уровне метеостанции атмосферное давление.
Tmin - Минимальная температура - минимум температуры воздуха на высоте 2 м над землей.
Tmax - Максимальная температура - максимум температуры воздуха на высоте 2 м над землей.
R - Количество осадков - Количество выпавших осадков за период времени, мм. При наведении курсора мыши на число - период времени, за который выпало указанное количество осадков.
R24 - Количество осадков - Количество выпавших осадков за 24 часа, мм.
S - Снежный покров - Высота снежного покрова, см. При наведении курсора мыши на число - состояние снежного покрова и степень покрытия местности в баллах.